Weather History for Waco, TX

Change the Weather History Date:

Sunday, August 5, 2012

  Actual Average Record
Temperature  
Mean Temperature 88 °F 86 °F  
Max Temperature 100 °F 98 °F 106 °F (2001)
Min Temperature 76 °F 75 °F 64 °F (1973)
Degree Days  
Heating Degree Days 0 0  
Month to date heating degree days 0 0  
Since 1 June heating degree days 0 0  
Since 1 July heating degree days 0 0  
Cooling Degree Days 23 21  
Month to date cooling degree days 125 105  
Year to date cooling degree days 2037 1671  
Since 1 June cooling degree days 1372 1219  
Growing Degree Days 38 (Base 50)    
Moisture  
Dew Point 68 °F    
Average Humidity 59    
Maximum Humidity 87    
Minimum Humidity 31    
Precipitation  
Precipitation 0.00 in 0.06 in 3.12 in (1906)
Month to date precipitation 0.00 0.28  
Year to date precipitation 25.16 20.39  
Sea Level Pressure  
Sea Level Pressure 30.03 in    
Wind  
Wind Speed 7 mph (South)    
Max Wind Speed 17 mph    
Max Gust Speed 24 mph    
Visibility 10 miles    
Events      
T = Trace of Precipitation, MM = Missing Value Source: NWS Daily Summary

Daily Weather History Graph

Daily Weather History Graph

Search for Another Location

Airport:

Trip Planner

Search our weather history database for the weather conditions in past years. The results will help you decide how hot, cold, wet, or windy it might be!

Date:

Astronomy

Aug. 05, 2012 Rise Set
Actual Time 6:47 AM CDT 8:21 PM CDT
Civil Twilight 6:21 AM CDT 8:47 PM CDT
Nautical Twilight 5:50 AM CDT 9:18 PM CDT
Astronomical Twilight 5:17 AM CDT 9:51 PM CDT
Moon 10:21 PM CDT (8/5) 10:19 AM CDT (8/5)
Length of Visible Light 14h 25m
Length of Day
13h 33m
Waning Gibbous, 86% of the Moon is Illuminated
Aug 5
Waning Gibbous
Aug 9
Last Quarter
Aug 17
New
Aug 24
First Quarter
Aug 31
Full

Hourly Weather History & Observations

Time (CDT) Temp. Heat Index Dew Point Humidity Pressure Visibility Wind Dir Wind Speed Gust Speed Precip Events Conditions
12:51 AM 87.1 °F 92.0 °F 70.0 °F 57% 29.98 in 10.0 mi South 13.8 mph - N/A   Clear
1:51 AM 84.9 °F 89.4 °F 70.0 °F 61% 29.99 in 10.0 mi South 10.4 mph - N/A   Clear
2:51 AM 82.9 °F 87.0 °F 70.0 °F 65% 29.99 in 10.0 mi SSW 6.9 mph - N/A   Clear
3:51 AM 82.0 °F 86.3 °F 71.1 °F 69% 30.00 in 10.0 mi South 10.4 mph - N/A   Clear
4:51 AM 81.0 °F 84.9 °F 71.1 °F 72% 30.01 in 10.0 mi SSW 9.2 mph - N/A   Clear
5:51 AM 78.8 °F - 71.6 °F 78% 30.05 in 10.0 mi SSW 8.1 mph - N/A   Clear
6:51 AM 75.9 °F - 72.0 °F 87% 30.05 in 10.0 mi SSW 5.8 mph - N/A   Clear
7:51 AM 80.1 °F 83.8 °F 72.0 °F 76% 30.07 in 10.0 mi Calm Calm - N/A   Clear
8:51 AM 84.2 °F 89.6 °F 71.6 °F 66% 30.11 in 10.0 mi West 3.5 mph - N/A   Clear
9:51 AM 88.0 °F 90.7 °F 66.9 °F 49% 30.10 in 10.0 mi Calm Calm - N/A   Clear
10:51 AM 91.0 °F 94.3 °F 66.9 °F 45% 30.11 in 10.0 mi Calm Calm - N/A   Clear
11:51 AM 93.0 °F 94.6 °F 64.0 °F 38% 30.09 in 10.0 mi Variable 5.8 mph - N/A   Clear
12:51 PM 96.1 °F 98.8 °F 64.9 °F 36% 30.07 in 10.0 mi SSW 9.2 mph - N/A   Clear
1:51 PM 98.1 °F 100.7 °F 64.0 °F 33% 30.05 in 10.0 mi SSE 10.4 mph - N/A   Clear
2:51 PM 98.1 °F 100.7 °F 64.0 °F 33% 30.04 in 10.0 mi Variable 6.9 mph - N/A   Partly Cloudy
3:51 PM 100.0 °F 103.6 °F 64.9 °F 32% 30.02 in 10.0 mi ESE 10.4 mph 18.4 mph N/A   Partly Cloudy
4:51 PM 98.6 °F 101.0 °F 64.4 °F 32% 30.03 in 10.0 mi ESE 12.7 mph - N/A   Clear
5:51 PM 98.1 °F 100.7 °F 64.0 °F 33% 29.99 in 10.0 mi SSE 8.1 mph - N/A   Clear
6:51 PM 97.0 °F 99.9 °F 64.9 °F 35% 29.99 in 10.0 mi SE 9.2 mph - N/A   Clear
7:51 PM 91.9 °F 97.4 °F 70.0 °F 48% 30.00 in 10.0 mi South 9.2 mph - N/A   Clear
8:51 PM 89.1 °F 95.0 °F 71.1 °F 55% 30.01 in 10.0 mi South 8.1 mph - N/A   Clear
9:51 PM 88.0 °F 92.9 °F 70.0 °F 55% 30.01 in 10.0 mi South 6.9 mph - N/A   Clear
10:51 PM 84.0 °F 89.0 °F 71.1 °F 65% 30.03 in 10.0 mi South 6.9 mph - N/A   Clear
11:51 PM 86.0 °F 90.1 °F 69.1 °F 57% 30.06 in 10.0 mi South 11.5 mph - N/A   Clear